Starlink 3342

operational
NORAD ID: 50816 Int'l Des: 2022-001 Owner: SPXS Country: US Constellation: starlink
LEOCIRCULAR

About Starlink 3342

Description loading...

Live Position

Loading 3D Globe...

Upcoming Passes

Altitude History

Altitude vs Time

uPlot chart will show altitude changes over time

Two-Line Element Set

1 50816U 22001P 25302.53264602 .00003519 00000-0 23891-3 0 9999
2 50816 53.2171 37.9049 0001257 99.2043 260.9091 15.08861267210605
Epoch: Oct 29, 2025 • Age: 5 hours

Current Status

Altitude 544.0 km
Velocity 7.60 km/s
Sub-Earth Point 46.86°N, 144.8°W
Launch Date Jan 6, 2022
Age 3.8 years
Type internet

Technical Details

Classification Payload
Mass 297.00 kg
Dry Mass 275.00 kg
Total Mass 297.00 kg
Length 0.20 m
Diameter 2.80 m
Span 9.00 m
Shape Box + pan
Manufacturer SPXS
Bus Type Starlink
Phase Status In Orbit
Owner/State SPXS/US

Large Constellations

Loading constellations...